TimeEDT,TemperatureF,Dew PointF,Humidity,Sea Level PressureIn,VisibilityMPH,Wind Direction,Wind SpeedMPH,Gust SpeedMPH,PrecipitationIn,Events,Conditions,WindDirDegrees,DateUTC
12:55 AM,74.7,65.5,73,30.12,10.0,North,10.4,-,N/A,,Clear,10,2012-10-11 04:55:00
1:55 AM,74.1,65.1,73,30.11,10.0,North,10.4,-,N/A,,Clear,10,2012-10-11 05:55:00
2:55 AM,74.1,63.3,69,30.10,10.0,North,9.2,-,N/A,,Clear,10,2012-10-11 06:55:00
3:55 AM,74.5,63.7,69,30.09,10.0,North,10.4,-,N/A,,Clear,10,2012-10-11 07:55:00
4:55 AM,75.0,63.7,68,30.09,10.0,NNE,13.8,-,N/A,,Scattered Clouds,30,2012-10-11 08:55:00
5:55 AM,75.7,63.9,66,30.09,10.0,NE,16.1,20.7,N/A,,Scattered Clouds,40,2012-10-11 09:55:00
6:55 AM,76.1,63.7,65,30.10,10.0,NE,17.3,-,N/A,,Scattered Clouds,40,2012-10-11 10:55:00
7:55 AM,76.6,64.0,65,30.12,10.0,NE,15.0,-,N/A,,Partly Cloudy,40,2012-10-11 11:55:00
8:55 AM,78.8,65.8,64,30.13,10.0,NE,15.0,-,N/A,,Partly Cloudy,40,2012-10-11 12:55:00
9:55 AM,81.1,66.4,61,30.14,10.0,NE,13.8,-,N/A,,Clear,50,2012-10-11 13:55:00
10:55 AM,82.6,66.7,59,30.16,10.0,NE,15.0,-,N/A,,Partly Cloudy,50,2012-10-11 14:55:00
11:55 AM,83.3,67.6,59,30.17,10.0,ENE,12.7,-,N/A,,Partly Cloudy,60,2012-10-11 15:55:00
12:55 PM,83.8,66.4,56,30.15,10.0,NE,15.0,-,N/A,,Clear,50,2012-10-11 16:55:00
1:55 PM,83.8,65.5,54,30.14,10.0,NE,12.7,-,N/A,,Clear,50,2012-10-11 17:55:00
2:55 PM,83.7,65.5,54,30.14,10.0,ENE,12.7,-,N/A,,Clear,60,2012-10-11 18:55:00
3:55 PM,82.0,65.8,58,30.14,10.0,NE,15.0,-,N/A,,Partly Cloudy,50,2012-10-11 19:55:00
4:55 PM,82.4,64.8,55,30.14,10.0,NE,13.8,-,N/A,,Clear,50,2012-10-11 20:55:00
5:55 PM,80.6,65.7,60,30.14,10.0,NE,13.8,-,N/A,,Partly Cloudy,50,2012-10-11 21:55:00
6:55 PM,79.3,64.9,61,30.14,10.0,NE,13.8,-,N/A,,Scattered Clouds,40,2012-10-11 22:55:00
7:55 PM,78.8,65.1,63,30.14,10.0,NE,13.8,-,N/A,,Scattered Clouds,50,2012-10-11 23:55:00
8:55 PM,78.4,65.1,63,30.15,10.0,NE,15.0,-,N/A,,Partly Cloudy,40,2012-10-12 00:55:00
9:55 PM,78.6,64.6,62,30.16,10.0,NE,16.1,-,N/A,,Mostly Cloudy,40,2012-10-12 01:55:00
10:55 PM,78.6,64.8,62,30.16,10.0,NE,17.3,-,N/A,,Mostly Cloudy,50,2012-10-12 02:55:00
11:55 PM,78.3,64.4,62,30.15,10.0,NE,16.1,-,N/A,,Partly Cloudy,50,2012-10-12 03:55:00